Simultaneous Nadir Overpasses (SNOs) Predictions

Prediction of SNOs between GOES-15 and LANDSAT-8 Satellite Orbit:

Table of predicted SNOs for the next 14.0 days since TLE Epoch: 2/14/2025
Index Date Time (GOES-15) GOES-15 Lat,Lon LANDSAT-8 Lat,Lon Distance(km) Time Diff (sec)
1 02/15/2025 06:14:46 -0.01, 61.49 0.51, 59.11 271.52 80
2 02/17/2025 06:05:14 -0.01, 61.47 -0.11, 62.07 66.95 80
3 02/19/2025 05:53:02 -0.01, 61.46 -0.75, 65.02 404.96 80
4 02/19/2025 18:14:26 0.01, 61.41 -0.34, 59.83 180.43 80
5 02/21/2025 17:59:33 0.01, 61.41 0.28, 62.79 156.76 80
6 02/22/2025 06:20:48 -0.02, 61.46 0.82, 57.64 435.06 80
7 02/23/2025 17:47:20 0.02, 61.41 0.93, 65.75 493.45 80
8 02/24/2025 06:08:35 -0.02, 61.46 0.17, 60.59 98.22 80
9 02/26/2025 05:59:01 -0.02, 61.46 -0.45, 63.56 238.45 80
10 02/26/2025 18:20:25 0.03, 61.41 -0.61, 58.36 345.75 80
11 02/28/2025 18:08:10 0.02, 61.41 -0.01, 61.34 9.41 80
